Regional Weather Roundup
Issued by NWS Upton, NY

Home | Current Version | Previous Version | Text Only | Print | Product List | Glossary On
Versions: 1 2 3 4 5 6 7 8 9 10 11 12 13 14 15 16 17 18 19 20 21 22 23 24 25 26 27 28 29 30 31 32 33 34 35 36 37 38 39 40 41 42 43 44 45 46 47 48 49 50
000
ASUS41 KOKX 081504
RWROKX

REGIONAL WEATHER ROUNDUP
NATIONAL WEATHER SERVICE NEW YORK NY
1000 AM EST MON FEB 08 2016

NOTE: "FAIR" INDICATES FEW OR NO CLOUDS BELOW 12,000 FEET WITH NO
SIGNIFICANT WEATHER AND/OR OBSTRUCTIONS TO VISIBILITY.

NYZ071-072-176-178-NJZ106-104-081600-
NEW YORK CITY METRO AREA


CITY           SKY/WX    TMP DP  RH WIND       PRES   REMARKS
CENTRAL PARK   LGT SNOW  34  27  75 NE9G20    29.83R WCI  27
LAGUARDIA APRT HVY SNOW  33  29  85 NE25G31   29.82R VSB 1/4 WCI  20
KENNEDY INTL   SNOW      33  29  85 N16       29.82R VSB 1/2 WCI  23
NEWARK/LIBERTY CLOUDY    37  25  61 NE15      29.81R WCI  28
BRNX BOT. GARD   N/A     32  28  86 NW7       29.81S WCI  26
TETERBORO      CLOUDY    36  23  59 NE8G22    29.81R WCI  30
$$

NYZ177-179-078>081-081600-
LONG ISLAND NEW YORK

CITY           SKY/WX    TMP DP  RH WIND       PRES   REMARKS
FARMINGDALE    LGT SNOW  31  27  85 NE16G23   29.78R VSB 3/4 WCI  20
ISLIP          SNOW      30  26  85 N22G28    29.74F VSB 1/2 WCI  17
SHIRLEY        SNOW      29  28  96 N15G21    29.77F VSB 1/2 WCI  18
RIVERHEAD        N/A     30  27  86 E3        29.75S
WESTHAMPTON    FOG       29  28  96 N22G30    29.76F VSB 1/4 WCI  15
EAST HAMPTON   LGT SNOW  29  27  93 N10G22    29.76R VSB 3/4 WCI  20
MONTAUK POINT    N/A     30  29  96 N15G24    29.76R WCI  19
$$

NYZ052-065-067-081600-
HUDSON VALLEY

CITY           SKY/WX    TMP DP  RH WIND       PRES   REMARKS
WHITE PLAINS   HVY SNOW  30  25  81 N15G21    29.80R VSB 1/4 WCI  19
NEWBURGH       MOSUNNY   34  16  47 NE12G23   29.83R WCI  25
MONTGOMERY     CLOUDY    35  18  49 NE13      29.82R WCI  26
POUGHKEEPSIE   CLOUDY    35  13  40 E12       29.84R WCI  27
ALBANY         CLOUDY    32  11  41 NE8       29.88F WCI  25
$$

NJZ001-105-106-008-010-013-015-019>022-104-081600-
NEW JERSEY

CITY           SKY/WX    TMP DP  RH WIND       PRES   REMARKS
NEWARK/LIBERTY CLOUDY    37  25  61 NE15      29.81R WCI  28
TETERBORO      CLOUDY    36  23  59 NE8G22    29.81R WCI  30
CALDWELL       CLOUDY    36  24  62 NE7       29.81R WCI  30
MORRISTOWN     CLOUDY    37  27  65 NE9G16    29.81R WCI  31
SOMERVILLE     CLOUDY    39  26  59 NE7       29.79R WCI  34
SUSSEX         CLOUDY    35  23  61 NE10G21   29.80S WCI  27
ANDOVER          N/A     34  25  69 NE8       29.80R WCI  27
TRENTON        CLOUDY    38  27  64 N7        29.79R WCI  33
MILLVILLE      CLOUDY    40  31  70 NE10      29.77S WCI  33
ATLANTIC CITY  CLOUDY    37  33  85 NE15      29.76S WCI  28
WRIGHTSTOWN    CLOUDY    38  36  94 NE13      29.75R WCI  30
TOMS RIVER     CLOUDY    36  30  80 NE15      29.77S WCI  26
BELMAR         CLOUDY    34  25  69 NE10G21   29.79R WCI  26
$$

PAZ047>061-062-071-081600-
EASTERN PENNSYLVANIA

CITY           SKY/WX    TMP DP  RH WIND       PRES   REMARKS
PHILADELPHIA   CLOUDY    41  27  57 NE9       29.80R
ALLENTOWN      CLOUDY    38  25  59 NE9       29.81R WCI  31
SCRANTON       CLOUDY    34  24  67 VRB3      29.79S
$$

CTZ002-004>006-009-010-012-RIZ004-006-007-MAZ004-011-015-081600-
SOUTHERN NEW ENGLAND
 IN CT

CITY           SKY/WX    TMP DP  RH WIND       PRES   REMARKS
BRADLEY INTL   CLOUDY    26   7  44 N16       29.85S WCI  14
HARTFORD       LGT SNOW  27  14  58 NE15      29.85R WCI  15
DANBURY        LGT SNOW  28  17  63 NE15G21   29.82R WCI  16
WTRBRY/OXFORD  LGT SNOW  27   9  46 NE14G23   29.79S WCI  15
BRIDGEPORT     LGT SNOW  29  25  85 N16       29.81S VSB 3/4 WCI  17
MERIDEN        LGT SNOW  28  16  60 N20G25    29.83S WCI  15
NEW HAVEN      LGT SNOW  27  23  85 N20G26    29.80S VSB 1   WCI  13
CHESTER        SNOW      27  23  86 NE14G21   29.78F VSB 1/4 WCI  15
GROTON         SNOW      25  25 100 N18G32    29.77R VSB 1/2 WCI  11
WILLIMANTIC    HVY SNOW  23  18  81 N14       29.83R VSB 1/4 WCI  11

 IN RI

CITY           SKY/WX    TMP DP  RH WIND       PRES   REMARKS
PROVIDENCE     SNOW      23  20  88 N24       29.79S VSB 1/2 WCI   7
BLOCK ISLAND   CLOUDY    32  30  93 NE22G31   29.72R VSB 1/4 WCI  19
WESTERLY       LGT SNOW  26  23  88 N16G29    29.77R VSB 3/4 WCI  14

 IN MA

CITY           SKY/WX    TMP DP  RH WIND       PRES   REMARKS
BOSTON         SNOW      20  16  84 N23G29    29.86R VSB 1/2 WCI   3
WORCESTER      CLOUDY    18   1  47 N16G26    29.79F WCI   3
WESTFIELD      CLOUDY    25  -2  31 N13G21    29.86F WCI  14
PROVINCETOWN   LGT SNOW  31  27  85 NE29G37   29.77F VSB 3/4 WCI  16
NANTUCKET      HVY SNOW  33  32  96 N37G47    29.63S VSB 1/4 WCI  18
$$

ANZ330-335-338-340-345-350-353-355-081600-
COASTAL MARINE OBSERVATIONS


STATION/POSITION TIME  SKY/WX   TEMP    WIND        PRES    VSBY  WAVE
                                AIR SEA DIR/SP/G                  HT/PER
                 (UTC)          (F)     (DEG/KT/KT) (MB)    (MI)  (FT/S)
NY HARB ENTRANCE 1350            35 44   40/ 23/ 29 1006.4         10/10
4S FIRE IS       NOT AVBL
20S FIRE ISLAND  1350            35 45   40/ 29/ 35 1005.7         17/10
GREAT SOUTH BAY  NOT AVBL
23SW MTP         1450            34 46   20/ 29/ 35 1005.1         18/11
HUDSON CANYON    1350            38 51              1002.2         23/11
KINGS POINT      1400            33 39   80/  9/ 16 1008.0
EXECUTION ROCKS  NOT AVBL
CENTRAL LI SOUND NOT AVBL
EASTERN LI SOUND 1400            31 42  360/ 17/ 25   N/A
ROBBINS REEF     1400            37      50/ 19/ 24 1007.4
$$


>>>>>>>>>>>>>>>>>>>>>>>>>>>> KEY <<<<<<<<<<<<<<<<<<<<<<<<<<<
>                                                          <
>     SKY/WX - SKY CONDITION/PRESENT WEATHER               <
>     TMP    - TEMPERATURE IN FAHRENHEIT                   <
>     DP     - DEWPOINT IN FAHRENHEIT                      <
>     RH     - RELATIVE HUMIDITY IN PERCENT                <
>     WIND   - DIRECTION AND SPEED IN MPH                  <
>     PRES   - MEAN SEA LEVEL PRESSURE IN INCHES OF HG     <
>     WCI    - WIND CHILL INDEX                            <
>     VSB    - VISIBILITY IN MILES                         <
>     HX     - HEAT INDEX                                  <
>     TC     - TEMPERATURE IN CELSIUS                      <
>     VRB    - VARIABLE WIND DIRECTION                     <
>                                                          <
>>>>>>>>>>>>>>>>>>>>>>>>>>>> KEY <<<<<<<<<<<<<<<<<<<<<<<<<<<





USA.gov is the U.S. government's official web portal to all federal, state and local government web resources and services.